Погода Николаевск-
на-Амуре

Погода Николаевск-
на-Амуре : погода сейчас, прогноз погоды и архив. Всё, что Вы хотите узнать о погоде Николаевск-
на-Амуре!

Хотите узнать прогноз погоды Николаевск-
на-Амуре? Тогда Вам сюда: Погода Николаевск-
на-Амуре

Поиск расширенной информации на нашем сайте:

Другие новости

Новости СМИ2

Главная страница сайта

Новости сайта

03.07.2017

Напоминаем, что на нашем специализированном сайте Метеоцентр.Азия вы можете получить высокодетализированные автоматические прогнозы погоды по пунктам России, СНГ и мира в авиационном формате (включающие направление и скорость ветра, видимость, явления погоды, количество и форму облачности, нижнюю и верхнюю границу облачности).


Погода Николаевск-
на-Амуре - сегодня

Время (UTC), дата Ветер
(°,м/с) 
Видим.   Явления Облачность Т
(°С)
Тd
(°С)
f(%) Тe
(°С)
Pmin
(гПа)
dP
(гПа)
Po
(мм)
O2
(г/м3)
Тmin Tmax R s Состояние
почвы
15 18.05.18 100 (В) 20000 м    4/4 600 м 
[Sc]
+6.9 +3.7 80 +6  1008.7  0.1  752  295           
18 18.05.18 090 (В) 20000 м    10/10 600 м 
[Sc]
+6.1 +2.6 78 +6  1009.1  0.4  753  296           
21 18.05.18 320 (СЗ) 20000 м  в посл. час дождь  10/10 600 м кучево-дожд. 
[Cb cap]
+5 +2.6 84 +5  1012.6  3.4  755  298  +4.5      влажная 
00 19.05.18 010 (С) 20000 м  {дождь}  10/10 600 м кучево-дожд. 
[Cb cap]
+6.9 +1.4 68 +6  1015.7  3.1  758  297           
03 19.05.18 030 (СВ) 20000 м    10/10 600 м кучево-дожд. 
[Cb cap]
+8.2 +2.2 66 +8  1017.6  1.9  759  297           
06 19.05.18 150 (ЮВ) 20000 м    9/9 600 м кучево-дожд. 
[Cb cap]
+8.8 +1.9 62 +8  1018.7  1.1  760  296           
12 19.05.18 050 (СВ) 20000 м    3/0 верхняя 
[Ci sp]
+4 +1.5 84 +5  1020.7  0.9  761  302           
15 19.05.18 100 (В) 20000 м    ясно 
+5.4 +2.2 80 +5  1020.7  0.1  761  300           
18 19.05.18 090 (В) 20000 м    1/0 верхняя 
[Ci sp]
+4.8 +1.9 81 +4  1020.7  761  301           
00 20.05.18 110 (В) 6{12}  20000 м    8/0 верхняя 
[Ci sp]
+11.1 +1.1 50 +10  1018.3  -1.7  760  294           
12 20.05.18 110 (В) 20000 м    8/8 600 м 
[Sc]
+11 +3.1 58 +10  1014.1  0.3  756  293           
15 20.05.18 120 (ЮВ) 20000 м  {ливн. осадки}  10/10 600 м кучево-дожд. 
[Cb cap]
+9.4 +3.9 68 +9  1014.3  0.2  757  294           
18 20.05.18 060 (СВ) 20000 м  {ливн. осадки}  10/10 600 м кучево-дожд. 
[Cb cap]
+7.6 +3.8 77 +8  1015.1  0.8  757  296           
21 20.05.18 030 (СВ) 20000 м  слаб. ливневой дождь  10/10 600 м кучево-дожд. 
[Cb cap]
+6.4 +4 85 +7  1017.1  1.9  759  298  +5.8      влажная 
00 21.05.18 230 (ЮЗ) 20000 м  {ливн. осадки}  10/10 600 м кучево-дожд. 
[Cb cap]
+9 +5.5 79 +10  1017.7  0.7  759  295           
12 21.05.18 030 (СВ) 20000 м    3/0 верхняя 
[Ci fib]
+5.3 +0 69 +5  1015.1  -1  757  299           
15 21.05.18 020 (С) 20000 м    ясно 
+1.2 -1.5 82 +1  1013.8  -1.4  756  303           
18 21.05.18 040 (СВ) 20000 м    1/0 верхняя 
[Ci fib]
+0.6 -1 89 +1  1011  -2.8  754  303           
00 22.05.18 180 (Ю) 20000 м    8/1 600 м верхняя 
[Sc|Ci sp]
+16.2 +2.8 41 +18  1005.8  -2.6  750  285           
03 22.05.18 280 (З) 20000 м    10/8 600 м средняя 
[Sc|Ac trans]
+17.8 +4.1 40 +18  1003.2  -2.6  748  282           
06 22.05.18 100 (В) 20000 м    10/8 600 м средняя 
[Sc|Ac trans]
+14.2 +7.2 63 +14  1002.3  -0.8  748  285           
12 22.05.18 090 (В) 20000 м    10/6 600 м верхняя 
[Sc|Ci sp]
+9.3 +7.2 87 +8  1003  1.1  748  290           
15 22.05.18 100 (В) 5{12}  20000 м    10/4 600 м верхняя 
[Sc|Ci sp]
+8.3 +5.4 82 +7  1003.8  0.7  749  292           
18 22.05.18 110 (В) 6{10}  20000 м    10/8 600 м верхняя 
[Sc|Ci sp]
+8.5 +5.8 83 +7  1003  -0.8  748  291           
21 22.05.18 100 (В) 7-10{13}  20000 м    10/8 600 м верхняя 
[Sc|Ci sp]
+9.9 +5.1 72 +8  1004.1  749  290  +7.8        влажная 
Время (UTC), дата Ветер
(°,м/с) 
Видим.   Явления Облачность Т
(°С)
Тd
(°С)
f(%) Тe
(°С)
Pmin
(гПа)
dP
(гПа)
Po
(мм)
O2
(г/м3)
Тmin Tmax R s Состояние
почвы

Для получения пояснительной информации подведите курсор к названию столбца.

ПОГОДА Николаевск-
на-Амуре - архив

Всё, что Вы хотите узнать о погоде Николаевск-
на-Амуре - удобно и подробно!

Выберите нужную дату (начиная с 1 января 2015* года) и нажмите кнопку "Найти".
Будут отображены архивные сводки погоды по пункту Николаевск-
на-Амуре, начиная с указанной даты.


Отображать данные в формате CSV (для использования в таблицах Excel)


Внимание! Наш архив погоды предназначен исключительно для личного некоммерческого использования в познавательных целях. Если Вам необходимы официальные справки о состоянии погоды (для производственных, юридических, коммерческих и т.п. целей), обращайтесь в органы Росгидромета.

*Примечание: данная дата относится к архиву по метеостанциям СССР (Россия, СНГ, Балтия).
Архив по метеостанциям Зарубежной Европы и Азии (кроме Китая) хранится 10 дней, по другим регионам земного шара (Китай, Африка, Америка, Австралия, Океания) - 1 день.

Николаевск-
на-Амуре - район местоположения метеостанции


Название, широта, долгота, высота метеостанции:
Николаевск-на-Амуре 53.2°ш. 140.7°д. 68 м над ур. моря [Российская Федерация]

Дополнительная информация

В oтличие oт бoльшинства пoгoдных сайтoв мы публикуем пoдрoбную метеoинфoрмацию в детальнoм прoфессиoнальнoм фoрмате.

Характеристики температуры и влажнoсти вoздуха измеряются на высoте 2 м в тени вдали oт зданий и деревьев.
Скoрoсть ветра измеряется на высoте 10 м (на урoвне рoста челoвека скoрoсть ветра ниже в 1.5-2 раза). Если метеoстанция нахoдится в гoрoде или в лесу, тo скoрoсть ветра занижена на 2-4 м/с пo сравнению с oткрытым местoм. Скoрoсть ветра над акватoриями крупных рек и oзёр, а также на вершинах хoлмoв на 2-5 м/с выше, чем в oбычных услoвиях.
Атмoсфернoе давление в разных тoчках местнoсти мoжет значительнo oтличаться oт давления на метеoстанции, в зависимoсти oт услoвий рельефа (при пoдъёме на 10 м давление пoнижается примернo на 1 мм рт.ст.).